This is the latest recevied weather packets stored in our database for station/object AI5BL. If no packets are shown the sender has not sent any weather packets the latest 10 day(s).
| Time | Temp. | Humidity | Pressure | Rain* | Wind** | Luminosity | Snow |
|---|---|---|---|---|---|---|---|
| 1777619203 | 15.56° C | 99% | 1015 hPa | 0 mm | - | 0 W/m² | - |
| 1777618903 | 15.56° C | 99% | 1014.9 hPa | 0 mm | - | 0 W/m² | - |
| 1777618603 | 15.56° C | 99% | 1014.8 hPa | 0 mm | - | 0 W/m² | - |
| 1777618300 | 15.56° C | 99% | 1014.8 hPa | 0 mm | - | 0 W/m² | - |
| 1777617997 | 15.56° C | 99% | 1015.1 hPa | 1.27 mm | - | 0 W/m² | - |
| 1777617693 | 15.56° C | 99% | 1015 hPa | 1.27 mm | - | 0 W/m² | - |
| 1777617388 | 15.56° C | 99% | 1014.6 hPa | 1.78 mm | - | 0 W/m² | - |
| 1777617087 | 15.56° C | 99% | 1014.3 hPa | 3.05 mm | - | 0 W/m² | - |
| 1777616786 | 15.56° C | 99% | 1014.8 hPa | 1.27 mm | - | 0 W/m² | - |
| 1777616482 | 15.56° C | 99% | 1015.5 hPa | 1.78 mm | - | 0 W/m² | - |
| 1777616178 | 15.56° C | 99% | 1015.5 hPa | 1.78 mm | - | 0 W/m² | - |
| 1777615875 | 15.56° C | 99% | 1016 hPa | 0 mm | - | 0 W/m² | - |
| 1777615572 | 15.56° C | 99% | 1015.7 hPa | 0 mm | - | 0 W/m² | - |
| 1777615269 | 15.56° C | 99% | 1015.5 hPa | 3.05 mm | - | 0 W/m² | - |
| 1777614968 | 15.56° C | 99% | 1015.7 hPa | 4.32 mm | - | 0 W/m² | - |
| 1777614664 | 15.56° C | 99% | 1015.6 hPa | 3.05 mm | - | 0 W/m² | - |
| 1777614360 | 16.11° C | 99% | 1016.1 hPa | 9.65 mm | - | 0 W/m² | - |
| 1777614055 | 16.11° C | 99% | 1016.2 hPa | 6.1 mm | - | 0 W/m² | - |
| 1777613750 | 16.11° C | 98% | 1016.5 hPa | 0 mm | - | 0 W/m² | - |
| 1777613449 | 16.11° C | 98% | 1016.4 hPa | 0 mm | - | 0 W/m² | - |
| 1777613145 | 16.11° C | 98% | 1016.5 hPa | 1.27 mm | - | 0 W/m² | - |
| 1777612841 | 16.11° C | 98% | 1016.2 hPa | 0 mm | - | 0 W/m² | - |
| 1777612538 | 16.11° C | 98% | 1016.2 hPa | 0 mm | - | 0 W/m² | - |
| 1777612233 | 16.11° C | 98% | 1016.1 hPa | 0 mm | - | 0 W/m² | - |
| 1777611928 | 16.11° C | 98% | 1016.3 hPa | 0 mm | - | 0 W/m² | - |
* Rain latest hour (hover to see other rain measurements)
** Current wind speed in m/s (hover to see current wind gust speed)